GS-1

Last updated on Fri Oct 31 2025 00:02:50 GMT+0000 (Coordinated Universal Time)

1 56372U 23060C 25302.86078690 -.00000021 00000+0 00000+0 0 9992 2 56372 2.1297 82.5256 0003222 245.4234 89.0291 1.00302205 5228
UTC large
Height (km)
Speed (km/s)
/
Latitude / Longitude
Inclination (degrees)
Orbital Period (minutes)
Azimuth
Elevation
Range (km)
Doppler Factor

Next 0 passes for location: London (51.5072 / 0.1276)

Sorry there are no passes over London.